Peoria, IL

11:39 PM CST on February 09, 2016 (GMT -0600)
Greater Peoria Regional

Weather History for KPIA - April, 2014

Change the Weather History Date:

Thursday, April 3, 2014

  Actual Average Record
Temperature  
Mean Temperature 46 °F 48 °F  
Max Temperature 51 °F 58 °F 84 °F (2011)
Min Temperature 41 °F 37 °F 18 °F (1975)
Degree Days  
Heating Degree Days 19 17  
Month to date heating degree days 61 53  
Since 1 July heating degree days 6174 5325  
Cooling Degree Days 0 0  
Month to date cooling degree days 0 0  
Year to date cooling degree days 0 1  
Moisture  
Dew Point 41 °F    
Average Humidity 82    
Maximum Humidity 93    
Minimum Humidity 70    
Precipitation  
Precipitation 2.02 in 0.11 in 2.02 in (2014)
Month to date precipitation 2.09 0.34  
Year to date precipitation 8.90 6.71  
Snow  
Snow 0.00 in 0.00 in 1.50 in (1920)
Month to date snowfall 0.0 0.1  
Since 1 July snowfall 57.3 24.1  
Snow Depth 0.00 in    
Sea Level Pressure  
Sea Level Pressure 29.75 in    
Wind  
Wind Speed 13 mph (ENE)    
Max Wind Speed 28 mph    
Max Gust Speed 33 mph    
Visibility 4 miles    
Events Rain , Thunderstorm    
T = Trace of Precipitation, MM = Missing Value Source: NWS Daily Summary

Daily Weather History Graph

Daily Weather History Graph

Search for Another Location

Airport or City:

Trip Planner

Search our weather history database for the weather conditions in past years. The results will help you decide how hot, cold, wet, or windy it might be!

Date:

Astronomy

Apr. 03, 2014 Rise Set
Actual Time 6:39 AM CDT 7:25 PM CDT
Civil Twilight 6:11 AM CDT 7:53 PM CDT
Nautical Twilight 5:38 AM CDT 8:26 PM CDT
Astronomical Twilight 5:04 AM CDT 9:00 PM CDT
Moon 9:07 AM CDT (4/3) 11:46 PM CDT (4/3)
Length of Visible Light 13h 41m
Length of Day
12h 46m
Waxing Crescent, 17% of the Moon is Illuminated
Apr 3
Waxing Crescent
Apr 7
First Quarter
Apr 15
Full
Apr 22
Last Quarter
Apr 29
New

Hourly Weather History & Observations

Time (CDT) Temp. Windchill Dew Point Humidity Pressure Visibility Wind Dir Wind Speed Gust Speed Precip Events Conditions
12:54 AM 43.0 °F 35.1 °F 33.1 °F 68% 29.92 in 10.0 mi ENE 17.3 mph - 0.00 in   Overcast
1:38 AM 42.1 °F 34.2 °F 34.0 °F 73% 29.88 in 8.0 mi East 16.1 mph - 0.00 in Rain Light Rain
1:54 AM 42.1 °F 33.3 °F 34.0 °F 73% 29.87 in 10.0 mi ENE 19.6 mph - 0.00 in   Overcast
2:24 AM 42.1 °F 33.6 °F 35.1 °F 76% 29.84 in 6.0 mi East 18.4 mph 29.9 mph N/A Thunderstorm Unknown
2:30 AM 42.1 °F 33.6 °F 36.0 °F 79% 29.84 in 0.5 mi East 18.4 mph 25.3 mph 0.02 in Rain , Thunderstorm Heavy Thunderstorms and Rain
2:37 AM 41.0 °F 31.4 °F 37.0 °F 86% 29.83 in 1.0 mi ENE 21.9 mph - 0.24 in Rain , Thunderstorm Heavy Thunderstorms and Rain
2:41 AM 41.0 °F 31.9 °F 37.9 °F 89% 29.84 in 2.0 mi ENE 19.6 mph - 0.29 in Rain , Thunderstorm Heavy Thunderstorms and Rain
2:54 AM 41.0 °F 34.7 °F 37.9 °F 89% 29.89 in 2.0 mi NW 10.4 mph - 0.33 in Rain , Thunderstorm Thunderstorms and Rain
3:04 AM 41.0 °F 32.5 °F 37.9 °F 89% 29.83 in 1.8 mi ENE 17.3 mph 26.5 mph 0.05 in Rain , Thunderstorm Thunderstorms and Rain
3:08 AM 41.0 °F 33.9 °F 37.9 °F 89% 29.84 in 2.0 mi East 12.7 mph - 0.06 in Rain , Thunderstorm Light Thunderstorms and Rain
3:10 AM 41.0 °F 33.1 °F 37.9 °F 89% 29.84 in 2.0 mi ENE 15.0 mph 23.0 mph 0.07 in Rain , Thunderstorm Light Thunderstorms and Rain
3:21 AM 41.0 °F 32.2 °F 37.9 °F 89% 29.82 in 3.0 mi ENE 18.4 mph - 0.07 in Rain , Thunderstorm Light Thunderstorms and Rain
3:37 AM 41.0 °F 31.9 °F 37.9 °F 89% 29.81 in 3.0 mi NE 19.6 mph - 0.10 in Rain , Thunderstorm Thunderstorms and Rain
3:40 AM 41.0 °F 32.2 °F 37.9 °F 89% 29.81 in 3.0 mi ENE 18.4 mph - 0.10 in Rain , Thunderstorm Thunderstorms and Rain
3:54 AM 41.0 °F 30.9 °F 37.9 °F 89% 29.80 in 2.0 mi East 24.2 mph - 0.16 in Rain , Thunderstorm Heavy Thunderstorms and Rain
3:58 AM 41.0 °F 31.6 °F 37.9 °F 89% 29.80 in 1.2 mi East 20.7 mph 33.4 mph 0.15 in Rain , Thunderstorm Heavy Thunderstorms and Rain
4:10 AM 41.0 °F 31.4 °F 39.0 °F 93% 29.78 in 1.8 mi East 21.9 mph - 0.36 in Rain , Thunderstorm Thunderstorms and Rain
4:15 AM 42.1 °F 33.1 °F 39.0 °F 89% 29.78 in 3.0 mi East 20.7 mph - 0.36 in Rain , Thunderstorm Light Thunderstorms and Rain
4:30 AM 42.1 °F 33.3 °F 39.9 °F 92% 29.76 in 3.0 mi East 19.6 mph - 0.39 in Rain , Thunderstorm Light Thunderstorms and Rain
4:54 AM 44.1 °F 37.7 °F 41.0 °F 89% 29.77 in 5.0 mi NE 12.7 mph - 0.41 in Rain , Thunderstorm Light Thunderstorms and Rain
5:00 AM 44.1 °F 37.4 °F 41.0 °F 89% 29.75 in 2.0 mi NE 13.8 mph - 0.02 in Rain Heavy Rain
5:08 AM 44.1 °F 37.7 °F 41.0 °F 89% 29.76 in 1.5 mi NE 12.7 mph - 0.16 in Rain Heavy Rain
5:16 AM 44.1 °F 37.4 °F 42.1 °F 93% 29.77 in 3.0 mi NE 13.8 mph - 0.19 in Rain Light Rain
5:30 AM 45.0 °F 38.9 °F 42.1 °F 90% 29.76 in 1.8 mi NNE 12.7 mph - 0.27 in Rain Heavy Rain
5:33 AM 45.0 °F 39.7 °F 42.1 °F 90% 29.76 in 1.2 mi NNE 10.4 mph - 0.38 in Rain , Thunderstorm Heavy Thunderstorms and Rain
5:43 AM 45.0 °F 38.9 °F 42.1 °F 90% 29.78 in 2.5 mi ENE 12.7 mph - 0.45 in Rain , Thunderstorm Heavy Thunderstorms and Rain
5:50 AM 44.6 °F 39.7 °F 42.8 °F 93% 29.81 in 3.0 mi ENE 9.2 mph - 0.47 in Rain , Thunderstorm Heavy Thunderstorms and Rain
5:54 AM 46.0 °F 39.9 °F 43.0 °F 89% 29.82 in 3.0 mi NE 13.8 mph - 0.49 in Rain , Thunderstorm Heavy Thunderstorms and Rain
5:59 AM 46.0 °F 39.6 °F 43.0 °F 89% 29.80 in 2.0 mi ENE 15.0 mph - 0.07 in Rain , Thunderstorm Heavy Thunderstorms and Rain
6:18 AM 46.0 °F 39.9 °F 43.0 °F 89% 29.77 in 3.0 mi NE 13.8 mph - 0.21 in Rain , Thunderstorm Heavy Thunderstorms and Rain
6:25 AM 45.0 °F 37.6 °F 43.0 °F 93% 29.76 in 3.0 mi ENE 17.3 mph - 0.25 in Rain , Thunderstorm Heavy Thunderstorms and Rain
6:54 AM 46.0 °F 38.8 °F 43.0 °F 89% 29.75 in 4.0 mi ENE 18.4 mph - 0.37 in Rain Rain
7:13 AM 46.0 °F 40.2 °F 43.0 °F 89% 29.76 in 6.0 mi NE 12.7 mph - 0.03 in Rain Rain
7:54 AM 46.0 °F 39.9 °F 43.0 °F 89% 29.81 in 2.0 mi ENE 13.8 mph - 0.17 in Rain Heavy Rain
8:07 AM 46.0 °F 37.6 °F 44.1 °F 93% 29.72 in 2.5 mi East 24.2 mph 29.9 mph 0.06 in Rain Rain
8:14 AM 46.0 °F 38.5 °F 43.0 °F 89% 29.72 in 4.0 mi East 19.6 mph 32.2 mph 0.06 in Rain Light Rain
8:31 AM 46.0 °F 38.5 °F 43.0 °F 89% 29.74 in 10.0 mi ENE 19.6 mph 28.8 mph 0.08 in   Overcast
8:54 AM 46.9 °F - 44.1 °F 90% 29.76 in 10.0 mi ENE 16.1 mph - 0.08 in   Overcast
9:54 AM 46.9 °F - 44.1 °F 90% 29.74 in 10.0 mi East 16.1 mph - N/A   Overcast
10:54 AM 48.9 °F - 45.0 °F 86% 29.75 in 10.0 mi East 13.8 mph 23.0 mph N/A   Overcast
11:54 AM 50.0 °F - 46.0 °F 86% 29.73 in 10.0 mi East 12.7 mph 21.9 mph N/A   Overcast
12:54 PM 51.1 °F - 46.0 °F 83% 29.73 in 10.0 mi ENE 5.8 mph - N/A   Overcast
1:54 PM 50.0 °F - 46.0 °F 86% 29.70 in 10.0 mi ENE 15.0 mph - N/A   Overcast
2:54 PM 50.0 °F - 45.0 °F 83% 29.73 in 10.0 mi East 10.4 mph - N/A   Overcast
3:54 PM 48.9 °F - 44.1 °F 83% 29.74 in 10.0 mi ENE 9.2 mph - N/A   Overcast
4:54 PM 46.9 °F - 44.1 °F 90% 29.76 in 5.0 mi East 9.2 mph - N/A   Overcast
5:21 PM 46.0 °F 41.0 °F 44.1 °F 93% 29.75 in 2.0 mi East 10.4 mph - N/A   Overcast
5:45 PM 46.0 °F 39.0 °F 43.0 °F 89% 29.70 in 1.2 mi ENE 17.3 mph - N/A   Overcast
5:54 PM 46.0 °F 40.2 °F 43.0 °F 89% 29.72 in 1.5 mi East 12.7 mph - N/A   Overcast
6:03 PM 45.0 °F 37.6 °F 43.0 °F 93% 29.70 in 2.0 mi ENE 17.3 mph - N/A   Overcast
6:22 PM 45.0 °F 38.2 °F 43.0 °F 93% 29.70 in 3.0 mi ENE 15.0 mph - N/A   Overcast
6:54 PM 44.1 °F 35.9 °F 42.1 °F 93% 29.69 in 2.0 mi ENE 19.6 mph - N/A   Overcast
7:04 PM 44.1 °F 36.5 °F 42.1 °F 93% 29.68 in 1.8 mi ENE 17.3 mph - N/A   Overcast
7:14 PM 44.1 °F 36.8 °F 42.1 °F 93% 29.69 in 2.0 mi East 16.1 mph - N/A   Overcast
7:28 PM 44.1 °F 37.4 °F 41.0 °F 89% 29.70 in 4.0 mi ENE 13.8 mph 24.2 mph N/A   Overcast
7:54 PM 44.1 °F 35.9 °F 41.0 °F 89% 29.70 in 4.0 mi East 19.6 mph - N/A   Overcast
8:54 PM 43.0 °F 35.1 °F 41.0 °F 93% 29.61 in 3.0 mi East 17.3 mph 25.3 mph 0.00 in Rain Light Rain
9:03 PM 43.0 °F 35.4 °F 41.0 °F 93% 29.58 in 2.5 mi ESE 16.1 mph 25.3 mph 0.00 in Rain Light Rain
9:14 PM 45.0 °F 38.5 °F 43.0 °F 93% 29.58 in 3.0 mi ESE 13.8 mph 23.0 mph 0.01 in   Overcast
9:46 PM 45.0 °F 41.8 °F 43.0 °F 93% 29.65 in 4.0 mi NNW 5.8 mph - 0.01 in   Overcast
10:54 PM 45.0 °F 41.2 °F 43.0 °F 93% 29.62 in 3.0 mi ENE 6.9 mph - N/A   Overcast
11:19 PM 44.1 °F 38.6 °F 42.1 °F 93% 29.55 in 2.5 mi East 10.4 mph - N/A   Overcast
11:33 PM 44.1 °F 37.4 °F 42.1 °F 93% 29.57 in 3.0 mi ENE 13.8 mph - N/A   Overcast
11:41 PM 44.1 °F 38.6 °F 42.1 °F 93% 29.57 in 2.5 mi ENE 10.4 mph - N/A   Overcast
11:54 PM 44.1 °F 38.6 °F 42.1 °F 93% 29.60 in 2.5 mi East 10.4 mph - N/A   Overcast